עמוד ראשי
METAR-TAF:

METAR-TAF

שדות תעופה :

Bandar-e Mahshahr, איראן

קו רוחב: 30-33-23N, קו אורך: 049-09-07E, גובה: 2מטר

תצפית מזג אוויר נוכחית

הדו"ח נערך לפני 54דקות, בשעה 14:00 UTC
רוח 19קשר מכיוון צפון-מערב
טמפרטורת 47 צלסיוס
לחות 16%
לחץ 992 hPa
ראות 10 קילומטר או יותר
ללא עננים שבסיסם נמוך מ 5000 רגל או קומולונימבוס

METAR: OIAM 181400Z 31019KT CAVOK 47/15 Q0992

זמן: 19:24 (14:54 UTC)


TAF: חסר

תצפיות ותחזיות מזג אוויר לגבי יותר מ- 4,000 שדות תעופה ברחבי העולם. דוחות METAR ו- TAF.

התחנות הזמינות מסומנות בנקודות צהובות ואדומות על גבי המפה.

העבר את העכבר לנקודה הצבעונית על מנת לראות את שם התחנה.

לאחר מכן, לחץ כדי לראות את תוכן ואת תחזיות מזג האוויר.

כדי לשנות את המפה: לחץ על הכפתורים הירוקים עם הפלוס השחור כדי להתקרב; על הכפתור הירוק עם המקף כדי להתרחק; או בחיצים הירוקים למפות סמוכות.


METAR-TAF: